Terminal Aerodrome Forecast
Issued by NWS

Home | Current Version | Previous Version | Graphics & Text | Print | Product List | Glossary On
Versions: 1 2 3 4 5 6 7 8 9 10 11 12 13
000
FTUS42 KMHX 221135
TAFOAJ
TAF
KOAJ 221135Z 2212/2312 35008KT P6SM VCSH BKN006
     FM221330 36010G19KT P6SM BKN025
     FM221500 01013G24KT P6SM SCT050
     FM222200 04004KT P6SM SKC
      AMD LTD TO CLD VIS AND WIND=

USA.gov is the U.S. government's official web portal to all federal, state and local government web resources and services.